Time,TemperatureF,DewpointF,PressureIn,WindDirection,WindDirectionDegrees,WindSpeedMPH,WindSpeedGustMPH,Humidity,HourlyPrecipIn,Conditions,Clouds,dailyrainin,SoftwareType,DateUTC
2013-01-18 00:00:00,36.5,35.6,30.18,WNW,285,4.8,4.8,95,0.00,,,1.07,dv,2013-01-18 05:00:00,
2013-01-18 00:05:00,36.3,35.4,30.18,WSW,246,4.8,4.8,95,0.00,,,0.00,dv,2013-01-18 05:05:00,
2013-01-18 00:10:00,36.3,35.2,30.19,NW,312,6.4,6.4,94,0.00,,,0.00,dv,2013-01-18 05:10:00,
2013-01-18 00:15:00,36.2,35.1,30.19,West,278,4.8,4.8,94,0.00,,,0.00,dv,2013-01-18 05:15:00,
2013-01-18 00:20:00,36.1,35.0,30.19,NW,323,3.2,3.2,94,0.00,,,0.00,dv,2013-01-18 05:20:00,
2013-01-18 00:25:00,35.9,34.6,30.19,SW,215,4.8,4.8,93,0.00,,,0.00,dv,2013-01-18 05:25:00,
2013-01-18 00:30:00,36.1,34.8,30.20,West,269,4.8,4.8,93,0.00,,,0.00,dv,2013-01-18 05:30:00,
2013-01-18 00:35:00,36.0,34.9,30.21,West,267,3.2,3.2,94,0.00,,,0.00,dv,2013-01-18 05:35:00,
2013-01-18 00:40:00,36.0,34.9,30.20,West,276,8.1,8.1,94,0.00,,,0.00,dv,2013-01-18 05:40:00,
2013-01-18 00:45:00,35.9,34.8,30.21,West,269,4.8,4.8,94,0.00,,,0.00,dv,2013-01-18 05:45:00,
2013-01-18 00:50:00,35.9,34.8,30.21,WNW,299,6.4,6.4,94,0.00,,,0.00,dv,2013-01-18 05:50:00,
2013-01-18 00:55:00,35.8,34.7,30.22,West,263,6.4,6.4,94,0.00,,,0.00,dv,2013-01-18 05:55:00,
2013-01-18 01:00:00,35.7,34.6,30.22,West,281,6.4,6.4,94,0.00,,,0.00,dv,2013-01-18 06:00:00,
2013-01-18 01:05:00,35.6,34.5,30.22,WSW,255,6.4,6.4,94,0.00,,,0.00,dv,2013-01-18 06:05:00,
2013-01-18 01:10:00,35.5,34.2,30.23,WSW,241,4.8,4.8,93,0.00,,,0.00,dv,2013-01-18 06:10:00,
2013-01-18 01:15:00,35.4,33.9,30.23,SW,215,1.6,1.6,92,0.00,,,0.00,dv,2013-01-18 06:15:00,
2013-01-18 01:20:00,35.4,33.9,30.24,WNW,287,6.4,6.4,92,0.00,,,0.00,dv,2013-01-18 06:20:00,
2013-01-18 01:25:00,35.3,33.8,30.23,WSW,247,4.8,4.8,92,0.00,,,0.00,dv,2013-01-18 06:25:00,
2013-01-18 01:30:00,35.4,34.1,30.23,WSW,240,6.4,6.4,93,0.00,,,0.00,dv,2013-01-18 06:30:00,
2013-01-18 01:35:00,35.4,34.1,30.23,WSW,257,6.4,6.4,93,0.00,,,0.00,dv,2013-01-18 06:35:00,
2013-01-18 01:40:00,35.4,34.1,30.24,West,281,6.4,6.4,93,0.00,,,0.00,dv,2013-01-18 06:40:00,
2013-01-18 01:45:00,35.3,34.0,30.24,West,259,4.8,4.8,93,0.00,,,0.00,dv,2013-01-18 06:45:00,
2013-01-18 01:50:00,35.3,34.0,30.24,WNW,282,8.1,8.1,93,0.00,,,0.00,dv,2013-01-18 06:50:00,
2013-01-18 01:55:00,35.2,33.9,30.25,WSW,248,4.8,4.8,93,0.00,,,0.00,dv,2013-01-18 06:55:00,
2013-01-18 02:00:00,35.1,33.6,30.24,NNE,27,3.2,3.2,92,0.00,,,0.00,dv,2013-01-18 07:00:00,
2013-01-18 02:05:00,34.9,33.2,30.24,West,268,6.4,6.4,91,0.00,,,0.00,dv,2013-01-18 07:05:00,
2013-01-18 02:10:00,34.9,33.4,30.25,West,264,3.2,3.2,92,0.00,,,0.00,dv,2013-01-18 07:10:00,
2013-01-18 02:15:00,34.9,33.4,30.25,West,264,3.2,3.2,92,0.00,,,0.00,dv,2013-01-18 07:15:00,
2013-01-18 02:20:00,34.9,33.4,30.25,West,264,3.2,3.2,92,0.00,,,0.00,dv,2013-01-18 07:20:00,
2013-01-18 02:25:00,34.7,33.2,30.25,West,263,3.2,3.2,92,0.00,,,0.00,dv,2013-01-18 07:25:00,
2013-01-18 02:30:00,34.7,33.2,30.25,WSW,253,6.4,6.4,92,0.00,,,0.00,dv,2013-01-18 07:30:00,
2013-01-18 02:35:00,34.6,33.1,30.26,WSW,244,6.4,6.4,92,0.00,,,0.00,dv,2013-01-18 07:35:00,
2013-01-18 02:40:00,34.5,33.0,30.26,West,277,8.1,8.1,92,0.00,,,0.00,dv,2013-01-18 07:40:00,
2013-01-18 02:50:00,34.4,32.9,30.26,WSW,255,6.4,6.4,92,0.00,,,0.00,dv,2013-01-18 07:50:00,
2013-01-18 03:00:00,34.5,33.0,30.26,West,272,3.2,3.2,92,0.00,,,0.00,dv,2013-01-18 08:00:00,
2013-01-18 03:05:00,34.5,33.0,30.26,WNW,286,6.4,6.4,92,0.00,,,0.00,dv,2013-01-18 08:05:00,
2013-01-18 03:10:00,34.4,32.7,30.26,West,269,4.8,4.8,91,0.00,,,0.00,dv,2013-01-18 08:10:00,
2013-01-18 03:15:00,34.3,32.4,30.26,WSW,246,8.1,8.1,90,0.00,,,0.00,dv,2013-01-18 08:15:00,
2013-01-18 03:20:00,34.3,32.4,30.26,WNW,294,4.8,4.8,90,0.00,,,0.00,dv,2013-01-18 08:20:00,
2013-01-18 03:25:00,34.2,32.1,30.27,WSW,252,3.2,3.2,89,0.00,,,0.00,dv,2013-01-18 08:25:00,
2013-01-18 03:30:00,34.1,31.8,30.26,WSW,241,3.2,3.2,88,0.00,,,0.00,dv,2013-01-18 08:30:00,
2013-01-18 03:35:00,34.1,31.8,30.26,South,178,6.4,6.4,88,0.00,,,0.00,dv,2013-01-18 08:35:00,
2013-01-18 03:40:00,34.1,31.6,30.26,WSW,239,3.2,3.2,87,0.00,,,0.00,dv,2013-01-18 08:40:00,
2013-01-18 03:45:00,34.1,31.6,30.27,WSW,257,3.2,3.2,87,0.00,,,0.00,dv,2013-01-18 08:45:00,
2013-01-18 03:55:00,34.2,31.9,30.27,WSW,254,3.2,3.2,88,0.00,,,0.00,dv,2013-01-18 08:55:00,
2013-01-18 04:00:00,34.1,31.8,30.27,West,270,3.2,3.2,88,0.00,,,0.00,dv,2013-01-18 09:00:00,
2013-01-18 04:05:00,34.1,31.8,30.27,WNW,285,3.2,3.2,88,0.00,,,0.00,dv,2013-01-18 09:05:00,
2013-01-18 04:10:00,34.0,31.9,30.28,WNW,285,3.2,3.2,89,0.00,,,0.00,dv,2013-01-18 09:10:00,
2013-01-18 04:15:00,34.0,31.5,30.27,WNW,289,4.8,4.8,87,0.00,,,0.00,dv,2013-01-18 09:15:00,
2013-01-18 04:20:00,33.9,31.0,30.28,WNW,295,4.8,4.8,85,0.00,,,0.00,dv,2013-01-18 09:20:00,
2013-01-18 04:30:00,33.8,31.1,30.28,West,281,3.2,3.2,86,0.00,,,0.00,dv,2013-01-18 09:30:00,
2013-01-18 04:35:00,33.9,31.6,30.28,West,281,3.2,3.2,88,0.00,,,0.00,dv,2013-01-18 09:35:00,
2013-01-18 04:40:00,33.8,31.5,30.28,West,281,3.2,3.2,88,0.00,,,0.00,dv,2013-01-18 09:40:00,
2013-01-18 04:45:00,33.8,31.5,30.27,West,281,1.6,1.6,88,0.00,,,0.00,dv,2013-01-18 09:45:00,
2013-01-18 04:50:00,33.5,31.2,30.28,WSW,253,3.2,3.2,88,0.00,,,0.00,dv,2013-01-18 09:50:00,
2013-01-18 04:55:00,33.4,31.1,30.28,WSW,253,3.2,3.2,88,0.00,,,0.00,dv,2013-01-18 09:55:00,
2013-01-18 05:05:00,33.2,30.9,30.28,WSW,257,4.8,4.8,88,0.00,,,0.00,dv,2013-01-18 10:05:00,
2013-01-18 05:10:00,33.2,30.9,30.29,WSW,258,1.6,1.6,88,0.00,,,0.00,dv,2013-01-18 10:10:00,
2013-01-18 05:15:00,33.2,30.7,30.29,WSW,257,1.6,1.6,87,0.00,,,0.00,dv,2013-01-18 10:15:00,
2013-01-18 05:20:00,33.2,30.7,30.29,WSW,258,0.0,0.0,87,0.00,,,0.00,dv,2013-01-18 10:20:00,
2013-01-18 05:25:00,33.2,30.9,30.29,WSW,258,0.0,0.0,88,0.00,,,0.00,dv,2013-01-18 10:25:00,
2013-01-18 05:30:00,33.1,30.8,30.30,SW,227,3.2,3.2,88,0.00,,,0.00,dv,2013-01-18 10:30:00,
2013-01-18 05:35:00,33.1,30.8,30.30,West,265,3.2,3.2,88,0.00,,,0.00,dv,2013-01-18 10:35:00,
2013-01-18 05:40:00,33.1,31.0,30.29,West,272,3.2,3.2,89,0.00,,,0.00,dv,2013-01-18 10:40:00,
2013-01-18 05:45:00,33.0,30.5,30.29,WSW,250,4.8,4.8,87,0.00,,,0.00,dv,2013-01-18 10:45:00,
2013-01-18 05:55:00,32.7,29.4,30.30,WNW,285,3.2,3.2,83,0.00,,,0.00,dv,2013-01-18 10:55:00,
2013-01-18 06:00:00,32.7,29.4,30.30,West,275,4.8,4.8,83,0.00,,,0.00,dv,2013-01-18 11:00:00,
2013-01-18 06:05:00,32.9,29.6,30.31,SW,233,6.4,6.4,83,0.00,,,0.00,dv,2013-01-18 11:05:00,
2013-01-18 06:10:00,32.9,29.4,30.31,SW,233,0.0,0.0,82,0.00,,,0.00,dv,2013-01-18 11:10:00,
2013-01-18 06:15:00,32.9,29.4,30.32,SW,233,0.0,0.0,82,0.00,,,0.00,dv,2013-01-18 11:15:00,
2013-01-18 06:25:00,32.8,29.3,30.32,SW,233,0.0,0.0,82,0.00,,,0.00,dv,2013-01-18 11:25:00,
2013-01-18 06:30:00,32.6,29.3,30.32,SW,233,0.0,0.0,83,0.00,,,0.00,dv,2013-01-18 11:30:00,
2013-01-18 06:35:00,32.4,29.1,30.32,SW,233,0.0,0.0,83,0.00,,,0.00,dv,2013-01-18 11:35:00,
2013-01-18 06:40:00,32.2,29.2,30.32,SW,233,0.0,0.0,84,0.00,,,0.00,dv,2013-01-18 11:40:00,
2013-01-18 06:45:00,32.1,29.1,30.33,SW,233,0.0,0.0,84,0.00,,,0.00,dv,2013-01-18 11:45:00,
2013-01-18 06:50:00,32.0,29.2,30.34,SW,233,0.0,0.0,85,0.00,,,0.00,dv,2013-01-18 11:50:00,
2013-01-18 06:55:00,31.9,29.1,30.33,SW,233,0.0,0.0,85,0.00,,,0.00,dv,2013-01-18 11:55:00,
2013-01-18 07:00:00,31.9,29.3,30.33,SW,233,0.0,0.0,86,0.00,,,0.00,dv,2013-01-18 12:00:00,
2013-01-18 07:05:00,31.9,29.5,30.33,SW,233,0.0,0.0,87,0.00,,,0.00,dv,2013-01-18 12:05:00,
2013-01-18 07:10:00,31.8,29.4,30.34,SW,233,0.0,0.0,87,0.00,,,0.00,dv,2013-01-18 12:10:00,
2013-01-18 07:15:00,31.8,29.4,30.34,SW,233,1.6,1.6,87,0.00,,,0.00,dv,2013-01-18 12:15:00,
2013-01-18 07:20:00,31.7,29.3,30.34,SW,233,0.0,0.0,87,0.00,,,0.00,dv,2013-01-18 12:20:00,
2013-01-18 07:25:00,31.7,29.3,30.34,SW,233,0.0,0.0,87,0.00,,,0.00,dv,2013-01-18 12:25:00,
2013-01-18 07:30:00,31.8,29.4,30.34,SW,233,1.6,1.6,87,0.00,,,0.00,dv,2013-01-18 12:30:00,
2013-01-18 07:35:00,31.6,29.0,30.34,SW,233,0.0,0.0,86,0.00,,,0.00,dv,2013-01-18 12:35:00,
2013-01-18 07:40:00,31.5,28.7,30.35,SW,233,3.2,3.2,85,0.00,,,0.00,dv,2013-01-18 12:40:00,
2013-01-18 07:45:00,31.5,28.7,30.35,SW,233,1.6,1.6,85,0.00,,,0.00,dv,2013-01-18 12:45:00,
2013-01-18 07:50:00,31.7,29.3,30.35,SW,233,1.6,1.6,87,0.00,,,0.00,dv,2013-01-18 12:50:00,
2013-01-18 07:55:00,31.9,29.5,30.36,WNW,285,1.6,1.6,87,0.00,,,0.00,dv,2013-01-18 12:55:00,
2013-01-18 08:00:00,32.0,29.6,30.36,West,275,3.2,3.2,87,0.00,,,0.00,dv,2013-01-18 13:00:00,
2013-01-18 08:05:00,32.1,29.7,30.36,West,272,4.8,4.8,87,0.00,,,0.00,dv,2013-01-18 13:05:00,
2013-01-18 08:10:00,32.1,29.7,30.36,WSW,258,4.8,4.8,87,0.00,,,0.00,dv,2013-01-18 13:10:00,
2013-01-18 08:15:00,32.1,29.5,30.37,West,263,3.2,3.2,86,0.00,,,0.00,dv,2013-01-18 13:15:00,
2013-01-18 08:20:00,32.1,29.3,30.37,WSW,257,6.4,6.4,85,0.00,,,0.00,dv,2013-01-18 13:20:00,
2013-01-18 08:25:00,32.2,29.2,30.37,SW,233,3.2,3.2,84,0.00,,,0.00,dv,2013-01-18 13:25:00,
2013-01-18 08:30:00,32.3,29.3,30.37,West,279,4.8,4.8,84,0.00,,,0.00,dv,2013-01-18 13:30:00,
2013-01-18 08:35:00,32.4,29.1,30.38,WSW,238,6.4,6.4,83,0.00,,,0.00,dv,2013-01-18 13:35:00,
2013-01-18 08:40:00,32.7,29.0,30.38,NNW,342,4.8,4.8,81,0.00,,,0.00,dv,2013-01-18 13:40:00,
2013-01-18 08:45:00,32.9,29.0,30.38,West,271,3.2,3.2,80,0.00,,,0.00,dv,2013-01-18 13:45:00,
2013-01-18 08:50:00,33.1,29.2,30.39,West,271,4.8,4.8,80,0.00,,,0.00,dv,2013-01-18 13:50:00,
2013-01-18 08:55:00,33.2,29.1,30.39,ENE,65,1.6,1.6,79,0.00,,,0.00,dv,2013-01-18 13:55:00,
2013-01-18 09:00:00,33.4,29.0,30.40,WNW,295,1.6,1.6,78,0.00,,,0.00,dv,2013-01-18 14:00:00,
2013-01-18 09:05:00,33.6,29.2,30.40,NE,51,3.2,3.2,78,0.00,,,0.00,dv,2013-01-18 14:05:00,
2013-01-18 09:10:00,33.8,29.4,30.40,NE,50,1.6,1.6,78,0.00,,,0.00,dv,2013-01-18 14:10:00,
2013-01-18 09:15:00,34.0,29.2,30.41,ENE,70,3.2,3.2,76,0.00,,,0.00,dv,2013-01-18 14:15:00,
2013-01-18 09:20:00,34.3,29.5,30.41,ENE,70,1.6,1.6,76,0.00,,,0.00,dv,2013-01-18 14:20:00,
2013-01-18 09:25:00,34.6,29.3,30.41,ENE,75,4.8,4.8,74,0.00,,,0.00,dv,2013-01-18 14:25:00,
2013-01-18 09:30:00,34.8,29.7,30.42,East,86,1.6,1.6,75,0.00,,,0.00,dv,2013-01-18 14:30:00,
2013-01-18 09:40:00,35.3,30.4,30.42,East,81,6.4,6.4,76,0.00,,,0.00,dv,2013-01-18 14:40:00,
2013-01-18 09:50:00,35.7,30.8,30.43,NNE,27,3.2,3.2,76,0.00,,,0.00,dv,2013-01-18 14:50:00,
2013-01-18 09:55:00,36.0,30.6,30.44,ENE,64,4.8,4.8,74,0.00,,,0.00,dv,2013-01-18 14:55:00,
2013-01-18 10:00:00,36.3,31.2,30.44,West,263,4.8,4.8,75,0.00,,,0.00,dv,2013-01-18 15:00:00,
2013-01-18 10:05:00,36.7,31.1,30.44,ENE,75,1.6,1.6,73,0.00,,,0.00,dv,2013-01-18 15:05:00,
2013-01-18 10:10:00,37.0,31.4,30.45,North,5,3.2,3.2,73,0.00,,,0.00,dv,2013-01-18 15:10:00,
2013-01-18 10:15:00,37.4,31.5,30.45,WSW,253,6.4,6.4,72,0.00,,,0.00,dv,2013-01-18 15:15:00,
2013-01-18 10:20:00,37.7,32.3,30.45,WSW,251,8.1,8.1,74,0.00,,,0.00,dv,2013-01-18 15:20:00,
2013-01-18 10:25:00,38.1,31.7,30.45,East,87,4.8,4.8,70,0.00,,,0.00,dv,2013-01-18 15:25:00,
2013-01-18 10:30:00,38.6,31.6,30.45,ENE,59,3.2,3.2,68,0.00,,,0.00,dv,2013-01-18 15:30:00,
2013-01-18 10:36:00,39.0,31.8,30.46,West,267,4.8,4.8,67,0.00,,,0.00,dv,2013-01-18 15:36:00,
2013-01-18 10:45:00,39.7,31.6,30.46,ENE,76,4.8,4.8,64,0.00,,,0.00,dv,2013-01-18 15:45:00,
2013-01-18 10:55:00,40.4,32.5,30.46,West,278,4.8,4.8,65,0.00,,,0.00,dv,2013-01-18 15:55:00,
2013-01-18 11:00:00,40.7,33.6,30.46,WSW,239,4.8,4.8,68,0.00,,,0.00,dv,2013-01-18 16:00:00,
2013-01-18 11:05:00,40.9,33.3,30.46,SSW,206,4.8,4.8,66,0.00,,,0.00,dv,2013-01-18 16:05:00,
2013-01-18 11:10:00,41.1,32.7,30.46,ENE,65,4.8,4.8,63,0.00,,,0.00,dv,2013-01-18 16:10:00,
2013-01-18 11:15:00,41.6,32.3,30.46,ENE,69,4.8,4.8,60,0.00,,,0.00,dv,2013-01-18 16:15:00,
2013-01-18 11:20:00,42.1,33.3,30.46,WNW,303,4.8,4.8,62,0.00,,,0.00,dv,2013-01-18 16:20:00,
2013-01-18 11:25:00,42.4,34.2,30.46,WSW,256,6.4,6.4,64,0.00,,,0.00,dv,2013-01-18 16:25:00,
2013-01-18 11:30:00,42.5,32.8,30.46,West,277,6.4,6.4,59,0.00,,,0.00,dv,2013-01-18 16:30:00,
2013-01-18 11:40:00,43.3,31.3,30.45,NNW,347,3.2,3.2,52,0.00,,,0.00,dv,2013-01-18 16:40:00,
2013-01-18 11:45:00,43.6,31.6,30.46,ENE,59,3.2,3.2,52,0.00,,,0.00,dv,2013-01-18 16:45:00,
2013-01-18 11:55:00,44.5,31.7,30.45,South,181,3.2,3.2,50,0.00,,,0.00,dv,2013-01-18 16:55:00,
2013-01-18 12:00:00,45.1,31.5,30.45,ENE,78,4.8,4.8,48,0.00,,,0.00,dv,2013-01-18 17:00:00,
2013-01-18 12:05:00,45.5,31.2,30.44,ENE,75,4.8,4.8,46,0.00,,,0.00,dv,2013-01-18 17:05:00,
2013-01-18 12:10:00,45.8,31.4,30.44,ENE,76,3.2,3.2,46,0.00,,,0.00,dv,2013-01-18 17:10:00,
2013-01-18 12:15:00,46.1,30.5,30.44,ENE,63,3.2,3.2,43,0.00,,,0.00,dv,2013-01-18 17:15:00,
2013-01-18 12:20:00,46.4,34.1,30.43,West,273,3.2,3.2,52,0.00,,,0.00,dv,2013-01-18 17:20:00,
2013-01-18 12:25:00,46.6,31.0,30.43,WSW,258,3.2,3.2,43,0.00,,,0.00,dv,2013-01-18 17:25:00,
2013-01-18 12:30:00,46.8,31.1,30.44,NW,311,3.2,3.2,43,0.00,,,0.00,dv,2013-01-18 17:30:00,
2013-01-18 12:35:00,47.0,31.7,30.43,NW,308,3.2,3.2,44,0.00,,,0.00,dv,2013-01-18 17:35:00,
2013-01-18 12:40:00,47.1,31.8,30.43,WNW,298,0.0,0.0,44,0.00,,,0.00,dv,2013-01-18 17:40:00,
2013-01-18 12:50:00,47.6,32.3,30.43,WNW,298,3.2,3.2,44,0.00,,,0.00,dv,2013-01-18 17:50:00,
2013-01-18 12:55:00,47.7,31.5,30.42,WNW,289,1.6,1.6,42,0.00,,,0.00,dv,2013-01-18 17:55:00,
2013-01-18 13:05:00,48.1,30.6,30.42,ENE,63,1.6,1.6,39,0.00,,,0.00,dv,2013-01-18 18:05:00,
2013-01-18 13:10:00,48.5,32.2,30.42,South,173,1.6,1.6,42,0.00,,,0.00,dv,2013-01-18 18:10:00,
2013-01-18 13:15:00,48.7,32.0,30.42,South,173,1.6,1.6,41,0.00,,,0.00,dv,2013-01-18 18:15:00,
2013-01-18 13:20:00,48.9,30.4,30.42,ESE,113,4.8,4.8,37,0.00,,,0.00,dv,2013-01-18 18:20:00,
2013-01-18 13:25:00,49.1,34.4,30.41,WSW,258,4.8,4.8,46,0.00,,,0.00,dv,2013-01-18 18:25:00,
2013-01-18 13:30:00,49.1,34.4,30.41,SW,230,4.8,4.8,46,0.00,,,0.00,dv,2013-01-18 18:30:00,
2013-01-18 13:35:00,49.2,32.4,30.41,ESE,121,3.2,3.2,41,0.00,,,0.00,dv,2013-01-18 18:35:00,
2013-01-18 13:40:00,49.4,31.3,30.41,East,85,4.8,4.8,38,0.00,,,0.00,dv,2013-01-18 18:40:00,
2013-01-18 13:45:00,49.5,32.3,30.41,East,86,3.2,3.2,40,0.00,,,0.00,dv,2013-01-18 18:45:00,
2013-01-18 13:50:00,49.8,31.2,30.41,East,85,3.2,3.2,37,0.00,,,0.00,dv,2013-01-18 18:50:00,
2013-01-18 14:00:00,50.2,30.5,30.41,East,85,1.6,1.6,35,0.00,,,0.00,dv,2013-01-18 19:00:00,
2013-01-18 14:05:00,50.4,33.1,30.41,SW,214,4.8,4.8,40,0.00,,,0.00,dv,2013-01-18 19:05:00,
2013-01-18 14:10:00,50.5,34.0,30.41,SSW,212,4.8,4.8,42,0.00,,,0.00,dv,2013-01-18 19:10:00,
2013-01-18 14:15:00,50.5,34.0,30.41,SSW,212,1.6,1.6,42,0.00,,,0.00,dv,2013-01-18 19:15:00,
2013-01-18 14:25:00,50.7,35.4,30.41,SSW,212,3.2,3.2,45,0.00,,,0.00,dv,2013-01-18 19:25:00,
2013-01-18 14:30:00,50.7,34.2,30.41,ESE,115,1.6,1.6,42,0.00,,,0.00,dv,2013-01-18 19:30:00,
2013-01-18 14:35:00,50.7,34.2,30.41,ESE,112,4.8,4.8,42,0.00,,,0.00,dv,2013-01-18 19:35:00,
2013-01-18 14:40:00,50.8,33.9,30.41,ESE,112,1.6,1.6,41,0.00,,,0.00,dv,2013-01-18 19:40:00,
2013-01-18 14:50:00,50.8,32.5,30.40,ENE,75,3.2,3.2,38,0.00,,,0.00,dv,2013-01-18 19:50:00,
2013-01-18 15:00:00,51.0,34.5,30.41,SW,228,6.4,6.4,42,0.00,,,0.00,dv,2013-01-18 20:00:00,
2013-01-18 15:05:00,51.1,34.1,30.41,SE,129,1.6,1.6,41,0.00,,,0.00,dv,2013-01-18 20:05:00,
2013-01-18 15:10:00,51.1,34.6,30.41,SSE,148,0.0,0.0,42,0.00,,,0.00,dv,2013-01-18 20:10:00,
2013-01-18 15:15:00,51.1,34.1,30.40,SW,231,4.8,4.8,41,0.00,,,0.00,dv,2013-01-18 20:15:00,
2013-01-18 15:20:00,51.1,35.0,30.40,SW,231,4.8,4.8,43,0.00,,,0.00,dv,2013-01-18 20:20:00,
2013-01-18 15:25:00,51.0,34.0,30.40,SW,225,6.4,6.4,41,0.00,,,0.00,dv,2013-01-18 20:25:00,
2013-01-18 15:30:00,50.8,34.3,30.40,SW,214,8.1,8.1,42,0.00,,,0.00,dv,2013-01-18 20:30:00,
2013-01-18 15:35:00,50.7,34.2,30.40,SW,214,3.2,3.2,42,0.00,,,0.00,dv,2013-01-18 20:35:00,
2013-01-18 15:45:00,50.8,33.0,30.41,ENE,67,1.6,1.6,39,0.00,,,0.00,dv,2013-01-18 20:45:00,
2013-01-18 15:50:00,50.9,32.6,30.40,ENE,67,1.6,1.6,38,0.00,,,0.00,dv,2013-01-18 20:50:00,
2013-01-18 15:55:00,51.0,32.2,30.41,ENE,67,0.0,0.0,37,0.00,,,0.00,dv,2013-01-18 20:55:00,
2013-01-18 16:05:00,51.1,36.2,30.41,SW,227,8.1,8.1,46,0.00,,,0.00,dv,2013-01-18 21:05:00,
2013-01-18 16:10:00,50.8,35.1,30.41,SW,222,3.2,3.2,44,0.00,,,0.00,dv,2013-01-18 21:10:00,
2013-01-18 16:15:00,50.6,35.8,30.41,SW,218,4.8,4.8,46,0.00,,,0.00,dv,2013-01-18 21:15:00,
2013-01-18 16:20:00,50.4,33.5,30.41,SW,218,3.2,3.2,41,0.00,,,0.00,dv,2013-01-18 21:20:00,
2013-01-18 16:25:00,50.4,33.1,30.41,SW,218,1.6,1.6,40,0.00,,,0.00,dv,2013-01-18 21:25:00,
2013-01-18 16:30:00,50.4,32.6,30.40,SW,218,1.6,1.6,39,0.00,,,0.00,dv,2013-01-18 21:30:00,
2013-01-18 16:35:00,50.5,33.6,30.41,SW,218,0.0,0.0,41,0.00,,,0.00,dv,2013-01-18 21:35:00,
2013-01-18 16:40:00,50.5,32.7,30.41,SW,218,0.0,0.0,39,0.00,,,0.00,dv,2013-01-18 21:40:00,
2013-01-18 16:50:00,50.6,33.2,30.41,SW,218,3.2,3.2,40,0.00,,,0.00,dv,2013-01-18 21:50:00,
2013-01-18 16:55:00,50.6,32.3,30.41,SW,218,0.0,0.0,38,0.00,,,0.00,dv,2013-01-18 21:55:00,
2013-01-18 17:00:00,50.6,34.9,30.41,SW,218,1.6,1.6,44,0.00,,,0.00,dv,2013-01-18 22:00:00,
2013-01-18 17:05:00,50.5,34.0,30.40,SW,218,0.0,0.0,42,0.00,,,0.00,dv,2013-01-18 22:05:00,
2013-01-18 17:10:00,50.4,33.9,30.40,SW,218,0.0,0.0,42,0.00,,,0.00,dv,2013-01-18 22:10:00,
2013-01-18 17:15:00,50.3,33.0,30.41,SW,218,1.6,1.6,40,0.00,,,0.00,dv,2013-01-18 22:15:00,
2013-01-18 17:20:00,50.1,32.8,30.41,SW,218,0.0,0.0,40,0.00,,,0.00,dv,2013-01-18 22:20:00,
2013-01-18 17:25:00,49.9,33.5,30.41,SW,218,0.0,0.0,42,0.00,,,0.00,dv,2013-01-18 22:25:00,
2013-01-18 17:30:00,49.8,33.0,30.41,SW,218,0.0,0.0,41,0.00,,,0.00,dv,2013-01-18 22:30:00,
2013-01-18 17:35:00,49.5,33.1,30.41,SW,218,0.0,0.0,42,0.00,,,0.00,dv,2013-01-18 22:35:00,
2013-01-18 17:45:00,49.0,32.3,30.41,SW,218,0.0,0.0,41,0.00,,,0.00,dv,2013-01-18 22:45:00,
2013-01-18 17:50:00,48.8,32.1,30.41,SW,218,0.0,0.0,41,0.00,,,0.00,dv,2013-01-18 22:50:00,
2013-01-18 17:55:00,48.6,32.3,30.41,SW,218,0.0,0.0,42,0.00,,,0.00,dv,2013-01-18 22:55:00,
2013-01-18 18:00:00,48.4,32.2,30.41,SW,218,0.0,0.0,42,0.00,,,0.00,dv,2013-01-18 23:00:00,
2013-01-18 18:10:00,47.9,32.9,30.42,SW,218,0.0,0.0,45,0.00,,,0.00,dv,2013-01-18 23:10:00,
2013-01-18 18:15:00,47.7,32.3,30.42,SW,218,0.0,0.0,44,0.00,,,0.00,dv,2013-01-18 23:15:00,
2013-01-18 18:20:00,47.4,32.5,30.42,SW,218,0.0,0.0,45,0.00,,,0.00,dv,2013-01-18 23:20:00,
2013-01-18 18:25:00,47.1,32.6,30.42,SW,218,0.0,0.0,46,0.00,,,0.00,dv,2013-01-18 23:25:00,
2013-01-18 18:30:00,46.9,32.4,30.42,SW,218,0.0,0.0,46,0.00,,,0.00,dv,2013-01-18 23:30:00,
2013-01-18 18:35:00,46.6,32.9,30.42,SW,218,0.0,0.0,48,0.00,,,0.00,dv,2013-01-18 23:35:00,
2013-01-18 18:40:00,46.3,31.5,30.42,SW,218,0.0,0.0,45,0.00,,,0.00,dv,2013-01-18 23:40:00,
2013-01-18 18:45:00,46.1,31.7,30.43,SW,218,0.0,0.0,46,0.00,,,0.00,dv,2013-01-18 23:45:00,
2013-01-18 18:50:00,45.8,32.2,30.42,SW,218,0.0,0.0,48,0.00,,,0.00,dv,2013-01-18 23:50:00,
2013-01-18 19:00:00,45.4,32.5,30.42,SW,218,0.0,0.0,50,0.00,,,0.00,dv,2013-01-19 00:00:00,
2013-01-18 19:05:00,45.1,32.3,30.42,SW,218,0.0,0.0,50,0.00,,,0.00,dv,2013-01-19 00:05:00,
2013-01-18 19:10:00,44.8,32.0,30.42,SW,218,0.0,0.0,50,0.00,,,0.00,dv,2013-01-19 00:10:00,
2013-01-18 19:15:00,44.5,32.4,30.42,SW,218,0.0,0.0,52,0.00,,,0.00,dv,2013-01-19 00:15:00,
2013-01-18 19:20:00,44.1,32.4,30.42,SW,218,0.0,0.0,53,0.00,,,0.00,dv,2013-01-19 00:20:00,
2013-01-18 19:25:00,43.9,32.2,30.42,SW,218,0.0,0.0,53,0.00,,,0.00,dv,2013-01-19 00:25:00,
2013-01-18 19:30:00,43.7,32.0,30.43,SW,218,0.0,0.0,53,0.00,,,0.00,dv,2013-01-19 00:30:00,
2013-01-18 19:35:00,43.4,32.1,30.42,SW,218,0.0,0.0,54,0.00,,,0.00,dv,2013-01-19 00:35:00,
2013-01-18 19:40:00,43.2,32.2,30.43,SW,218,0.0,0.0,55,0.00,,,0.00,dv,2013-01-19 00:40:00,
2013-01-18 19:45:00,42.9,32.2,30.43,SW,218,0.0,0.0,56,0.00,,,0.00,dv,2013-01-19 00:45:00,
2013-01-18 19:50:00,42.7,32.1,30.42,SW,218,0.0,0.0,56,0.00,,,0.00,dv,2013-01-19 00:50:00,
2013-01-18 19:55:00,42.5,32.2,30.43,SW,218,0.0,0.0,57,0.00,,,0.00,dv,2013-01-19 00:55:00,
2013-01-18 20:00:00,42.3,32.6,30.43,SW,218,0.0,0.0,59,0.00,,,0.00,dv,2013-01-19 01:00:00,
2013-01-18 20:05:00,42.1,32.4,30.43,SW,218,0.0,0.0,59,0.00,,,0.00,dv,2013-01-19 01:05:00,
2013-01-18 20:10:00,41.9,32.2,30.43,SW,218,0.0,0.0,59,0.00,,,0.00,dv,2013-01-19 01:10:00,
2013-01-18 20:15:00,41.7,32.1,30.43,SW,218,0.0,0.0,59,0.00,,,0.00,dv,2013-01-19 01:15:00,
2013-01-18 20:20:00,41.5,31.9,30.43,SW,218,0.0,0.0,59,0.00,,,0.00,dv,2013-01-19 01:20:00,
2013-01-18 20:25:00,41.2,31.0,30.43,SW,218,0.0,0.0,57,0.00,,,0.00,dv,2013-01-19 01:25:00,
2013-01-18 20:35:00,40.9,31.6,30.43,SW,218,0.0,0.0,60,0.00,,,0.00,dv,2013-01-19 01:35:00,
2013-01-18 20:40:00,40.7,31.7,30.44,SW,218,0.0,0.0,61,0.00,,,0.00,dv,2013-01-19 01:40:00,
2013-01-18 20:45:00,40.6,31.6,30.43,SW,218,0.0,0.0,61,0.00,,,0.00,dv,2013-01-19 01:45:00,
2013-01-18 20:50:00,40.5,31.5,30.44,SW,218,0.0,0.0,61,0.00,,,0.00,dv,2013-01-19 01:50:00,
2013-01-18 20:55:00,40.4,31.4,30.44,SW,218,0.0,0.0,61,0.00,,,0.00,dv,2013-01-19 01:55:00,
2013-01-18 21:00:00,40.3,31.6,30.44,SW,218,0.0,0.0,62,0.00,,,0.00,dv,2013-01-19 02:00:00,
2013-01-18 21:05:00,40.1,31.4,30.44,SW,218,0.0,0.0,62,0.00,,,0.00,dv,2013-01-19 02:05:00,
2013-01-18 21:10:00,40.0,31.3,30.43,SW,218,0.0,0.0,62,0.00,,,0.00,dv,2013-01-19 02:10:00,
2013-01-18 21:15:00,39.9,31.2,30.44,SW,218,0.0,0.0,62,0.00,,,0.00,dv,2013-01-19 02:15:00,
2013-01-18 21:20:00,39.8,31.4,30.44,SW,218,0.0,0.0,63,0.00,,,0.00,dv,2013-01-19 02:20:00,
2013-01-18 21:25:00,39.7,31.3,30.44,SW,218,0.0,0.0,63,0.00,,,0.00,dv,2013-01-19 02:25:00,
2013-01-18 21:30:00,39.6,31.0,30.44,SW,218,0.0,0.0,62,0.00,,,0.00,dv,2013-01-19 02:30:00,
2013-01-18 21:35:00,39.5,31.4,30.44,SW,218,0.0,0.0,64,0.00,,,0.00,dv,2013-01-19 02:35:00,
2013-01-18 21:40:00,39.4,31.6,30.44,SW,218,0.0,0.0,65,0.00,,,0.00,dv,2013-01-19 02:40:00,
2013-01-18 21:45:00,39.2,31.1,30.44,SW,218,0.0,0.0,64,0.00,,,0.00,dv,2013-01-19 02:45:00,
2013-01-18 21:50:00,39.0,31.2,30.44,SW,218,0.0,0.0,65,0.00,,,0.00,dv,2013-01-19 02:50:00,
2013-01-18 21:55:00,38.8,31.6,30.44,SW,218,0.0,0.0,67,0.00,,,0.00,dv,2013-01-19 02:55:00,
2013-01-18 22:00:00,38.6,31.4,30.44,SW,218,0.0,0.0,67,0.00,,,0.00,dv,2013-01-19 03:00:00,
2013-01-18 22:05:00,38.4,31.7,30.44,SW,218,0.0,0.0,69,0.00,,,0.00,dv,2013-01-19 03:05:00,
2013-01-18 22:10:00,38.3,31.6,30.44,SW,218,0.0,0.0,69,0.00,,,0.00,dv,2013-01-19 03:10:00,
2013-01-18 22:15:00,38.0,31.3,30.44,SW,218,0.0,0.0,69,0.00,,,0.00,dv,2013-01-19 03:15:00,
2013-01-18 22:20:00,37.9,31.5,30.44,SW,218,0.0,0.0,70,0.00,,,0.00,dv,2013-01-19 03:20:00,
2013-01-18 22:25:00,37.8,31.4,30.43,SW,218,0.0,0.0,70,0.00,,,0.00,dv,2013-01-19 03:25:00,
2013-01-18 22:30:00,37.6,31.2,30.43,SW,218,0.0,0.0,70,0.00,,,0.00,dv,2013-01-19 03:30:00,
2013-01-18 22:35:00,37.5,31.1,30.43,SW,218,0.0,0.0,70,0.00,,,0.00,dv,2013-01-19 03:35:00,
2013-01-18 22:40:00,37.4,31.3,30.43,SW,218,0.0,0.0,71,0.00,,,0.00,dv,2013-01-19 03:40:00,
2013-01-18 22:45:00,37.3,31.4,30.43,SW,218,0.0,0.0,72,0.00,,,0.00,dv,2013-01-19 03:45:00,
2013-01-18 22:55:00,36.9,30.8,30.42,SW,218,0.0,0.0,71,0.00,,,0.00,dv,2013-01-19 03:55:00,
2013-01-18 23:00:00,36.8,30.9,30.43,SW,218,0.0,0.0,72,0.00,,,0.00,dv,2013-01-19 04:00:00,
2013-01-18 23:05:00,36.7,30.8,30.43,SW,218,0.0,0.0,72,0.00,,,0.00,dv,2013-01-19 04:05:00,
2013-01-18 23:10:00,36.5,30.6,30.43,SW,218,0.0,0.0,72,0.00,,,0.00,dv,2013-01-19 04:10:00,
2013-01-18 23:15:00,36.3,30.7,30.43,SW,218,0.0,0.0,73,0.00,,,0.00,dv,2013-01-19 04:15:00,
2013-01-18 23:20:00,36.3,30.9,30.42,SW,218,0.0,0.0,74,0.00,,,0.00,dv,2013-01-19 04:20:00,
2013-01-18 23:25:00,36.2,30.8,30.42,SW,218,0.0,0.0,74,0.00,,,0.00,dv,2013-01-19 04:25:00,
2013-01-18 23:30:00,36.1,30.7,30.42,SW,218,0.0,0.0,74,0.00,,,0.00,dv,2013-01-19 04:30:00,
2013-01-18 23:35:00,36.1,30.7,30.42,SW,218,0.0,0.0,74,0.00,,,0.00,dv,2013-01-19 04:35:00,
2013-01-18 23:40:00,36.0,30.6,30.42,SW,218,0.0,0.0,74,0.00,,,0.00,dv,2013-01-19 04:40:00,
2013-01-18 23:45:00,35.9,30.3,30.42,SW,218,0.0,0.0,73,0.00,,,0.00,dv,2013-01-19 04:45:00,
2013-01-18 23:50:00,35.8,30.4,30.41,SW,218,0.0,0.0,74,0.00,,,0.00,dv,2013-01-19 04:50:00,
2013-01-18 23:55:00,35.8,30.4,30.41,SW,218,0.0,0.0,74,0.00,,,0.00,dv,2013-01-19 04:55:00,